Tracking 29892 objects as of 21-Nov-2024
HD Live streaming from Space Station
objects crossing your sky now

CZ-6A DEB

Track CZ-6A DEB now!
10-day predictions


NORAD ID: 54933
Int'l Code: 2022-151RW
Perigee: 650.6 km
Apogee: 799.8 km
Inclination: 99.1 °
Period: 99.2 minutes
Semi major axis: 7096 km
RCS: Unknown
Launch date: November 11, 2022
Source: People's Republic of China (PRC)
Launch site: Taiyaun Space Center, China (TSC)

Note: This is SATELLITE DEBRIS
Your satellite tracking list
Your tracking list is empty




NASA's NSSDC Master Catalog

Two Line Element Set (TLE):
1 54933U 22151RW  24324.63661679  .00014586  00000-0  33413-2 0  9994
2 54933  99.0842  31.8109 0105113 284.1248  74.8282 14.52336195105938
Source of the keplerian elements: AFSPC